Hourly Data Report for May 21, 2022

TORONTO CITY
ONTARIO
Current Station Operator: ECCC - MSC

43°40'00.000" N
79°24'00.000" W
112.50 m
6158355
71508
XTO

Download Data

Hourly Data (May 2022)
Hourly Data Report for May 21, 2022
TIME
LST
Temp Definition
°C
Dew Point Definition
°C
Rel Hum Definition
%
Precip. Amount Definition
mm

Wind Dir Definition
10's deg

Wind Spd Definition
km/h
Visibility Definition
km
Stn Press Definition
kPa
Hmdx Definition


Wind Chill Definition


Weather Definition


00:00 19.5 16.6 83 0.0       99.25     LegendNANA
01:00 20.8 16.8 78 0.0       99.22 26   LegendNANA
02:00 20.3 16.3 78 0.0       99.28 25   LegendNANA
03:00 19.6 16.5 82 0.0       99.36     LegendNANA
04:00 20.0 16.8 82 0.0       99.45 25   LegendNANA
05:00 20.4 17.3 82 0.0       99.52 26   LegendNANA
06:00 20.2 16.5 79 0.0       99.63 25   LegendNANA
07:00 21.5 17.2 77 0.0       99.67 27   LegendNANA
08:00 22.3 18.5 79 0.0       99.67 29   LegendNANA
09:00 24.1 17.8 68 0.0       99.68 30   LegendNANA
10:00 26.1 18.6 63 0.0       99.75 33   LegendNANA
11:00 26.9 17.7 57 0.0       99.80 33   LegendNANA
12:00 24.6 17.1 63 0.0       100.05 30   LegendNANA
13:00 21.0 16.7 77 1.5       99.73 26   LegendNANA
14:00 18.9 15.1 79 0.0       99.96     LegendNANA
15:00 22.4 15.9 67 0.0       100.08 27   LegendNANA
16:00 24.9 17.2 62 0.0       100.06 30   LegendNANA
17:00 24.6 16.8 62 0.0       100.11 30   LegendNANA
18:00 22.2 15.9 67 0.0       100.07 27   LegendNANA
19:00 20.8 14.7 68 0.0       100.12 25   LegendNANA
20:00 20.2 14.5 70 0.0       100.17     LegendNANA
21:00 19.6 13.6 68 0.0       100.29     LegendNANA
22:00 17.9 13.9 77 0.0       100.37     LegendNANA
23:00 16.6 12.9 78 0.0       100.26     LegendNANA

Notes on Data Quality.

Legend

  • E = Estimated
  • M = Missing
  • NA = Not Available*
  • [empty] = Indicates an unobserved value
Date modified: